AUA118H LOWG-LOWW

Flight info

Callsign AUA118H
Flight time 0h 30m
Altitude 13000
Route ROPAG4G ROPAG DCT NIGSI NIGSI2W
Aircraft E195/M-SDE3GILORVW/S

Departure

Time 2026-04-22 13:31
Airport Graz Airport (LOWG)

Arrival

Time 2026-04-22 14:02
Airport Vienna International Airport (LOWW)
Time Latitude Longitude Altitude Speed Heading
2026-04-22 13:02 46.99752 15.44332 1126 ft 0 kts 168°
2026-04-22 13:27 46.99751 15.44332 1125 ft 0 kts 168°
2026-04-22 13:28 46.99751 15.44333 1125 ft 0 kts 168°
2026-04-22 13:28 46.99738 15.44328 1125 ft 4 kts 211°
2026-04-22 13:28 46.99737 15.44275 1125 ft 8 kts 323°
2026-04-22 13:29 46.99801 15.44241 1125 ft 11 kts 315°
2026-04-22 13:29 46.99859 15.44157 1125 ft 14 kts 345°
2026-04-22 13:29 46.99972 15.44126 1125 ft 18 kts 349°
2026-04-22 13:29 47.00111 15.44086 1125 ft 22 kts 348°
2026-04-22 13:30 47.00240 15.44053 1125 ft 17 kts 349°
2026-04-22 13:30 47.00342 15.43944 1125 ft 21 kts 305°
2026-04-22 13:30 47.00427 15.43765 1125 ft 18 kts 292°
2026-04-22 13:30 47.00396 15.43617 1125 ft 15 kts 192°
2026-04-22 13:31 47.00287 15.43639 1125 ft 40 kts 169°
2026-04-22 13:31 46.99715 15.43794 1125 ft 122 kts 171°
2026-04-22 13:31 46.98714 15.44080 1194 ft 167 kts 169°
2026-04-22 13:31 46.97510 15.44438 1796 ft 183 kts 168°
2026-04-22 13:32 46.96219 15.44863 2543 ft 196 kts 166°
2026-04-22 13:32 46.94895 15.45424 3441 ft 199 kts 160°
2026-04-22 13:32 46.93647 15.46242 4437 ft 195 kts 147°
2026-04-22 13:32 46.92553 15.47466 5334 ft 198 kts 132°
2026-04-22 13:33 46.91678 15.49031 6115 ft 205 kts 119°
2026-04-22 13:33 46.91103 15.51000 6796 ft 218 kts 96°
2026-04-22 13:33 46.91309 15.53304 6962 ft 251 kts 62°
2026-04-22 13:33 46.92504 15.55218 7562 ft 263 kts 30°
2026-04-22 13:34 46.94193 15.56224 8652 ft 263 kts 16°
2026-04-22 13:34 46.95984 15.56814 9701 ft 266 kts 10°
2026-04-22 13:34 46.97816 15.57237 10746 ft 268 kts
2026-04-22 13:34 46.99715 15.57699 11343 ft 290 kts 13°
2026-04-22 13:35 47.01683 15.58679 11947 ft 305 kts 24°
2026-04-22 13:35 47.03496 15.60146 12620 ft 285 kts 32°
2026-04-22 13:35 47.05045 15.61760 12872 ft 268 kts 37°
2026-04-22 13:35 47.06565 15.63523 13039 ft 281 kts 38°
2026-04-22 13:36 47.08065 15.65294 13120 ft 275 kts 37°
2026-04-22 13:36 47.09577 15.67044 13175 ft 278 kts 37°
2026-04-22 13:36 47.11115 15.68771 13218 ft 278 kts 36°
2026-04-22 13:36 47.12669 15.70475 13226 ft 278 kts 36°
2026-04-22 13:37 47.14226 15.72158 13225 ft 278 kts 36°
2026-04-22 13:37 47.15782 15.73838 13225 ft 278 kts 35°
2026-04-22 13:37 47.17341 15.75527 13224 ft 278 kts 36°
2026-04-22 13:37 47.18878 15.77200 13224 ft 278 kts 36°
2026-04-22 13:38 47.20428 15.78890 13224 ft 278 kts 36°
2026-04-22 13:38 47.23313 15.82684 13227 ft 279 kts 44°
2026-04-22 13:38 47.24646 15.84763 13225 ft 279 kts 45°
2026-04-22 13:39 47.25541 15.86168 13226 ft 278 kts 45°
2026-04-22 13:39 47.26860 15.88237 13226 ft 277 kts 45°
2026-04-22 13:39 47.28627 15.90968 13225 ft 278 kts 45°
2026-04-22 13:39 47.29514 15.92329 13223 ft 278 kts 45°
2026-04-22 13:40 47.30857 15.94372 13224 ft 278 kts 44°
2026-04-22 13:40 47.32202 15.96415 13224 ft 277 kts 44°
2026-04-22 13:40 47.33544 15.98454 13224 ft 278 kts 44°
2026-04-22 13:40 47.34887 16.00500 13222 ft 277 kts 44°
2026-04-22 13:41 47.36244 16.02537 13219 ft 279 kts 41°
2026-04-22 13:41 47.37884 16.04003 13216 ft 277 kts 20°
2026-04-22 13:41 47.39728 16.04845 13226 ft 278 kts 18°
2026-04-22 13:41 47.41568 16.05721 13221 ft 277 kts 18°
2026-04-22 13:42 47.43382 16.06621 13174 ft 271 kts 19°
2026-04-22 13:42 47.45151 16.07514 12832 ft 268 kts 19°
2026-04-22 13:42 47.46920 16.08412 12282 ft 272 kts 19°
2026-04-22 13:42 47.48722 16.09333 11776 ft 274 kts 19°
2026-04-22 13:43 47.50500 16.10242 11530 ft 266 kts 19°
2026-04-22 13:43 47.52235 16.11119 11217 ft 262 kts 18°
2026-04-22 13:43 47.53951 16.11980 10866 ft 259 kts 18°
2026-04-22 13:43 47.55659 16.12843 10484 ft 259 kts 18°
2026-04-22 13:44 47.57361 16.13705 10105 ft 259 kts 18°
2026-04-22 13:44 47.59065 16.14559 9731 ft 258 kts 17°
2026-04-22 13:44 47.60762 16.15421 9373 ft 257 kts 17°
2026-04-22 13:44 47.62453 16.16274 9005 ft 256 kts 17°
2026-04-22 13:45 47.64141 16.17117 8647 ft 255 kts 17°
2026-04-22 13:45 47.65823 16.17962 8315 ft 254 kts 16°
2026-04-22 13:45 47.67480 16.18785 8178 ft 251 kts 16°
2026-04-22 13:45 47.69158 16.19616 8106 ft 256 kts 16°
2026-04-22 13:46 47.70838 16.20458 8055 ft 253 kts 16°
2026-04-22 13:46 47.72506 16.21292 8019 ft 254 kts 16°
2026-04-22 13:46 47.74182 16.22129 7992 ft 254 kts 16°
2026-04-22 13:46 47.75849 16.22989 7981 ft 254 kts 19°
2026-04-22 13:47 47.77291 16.24471 7982 ft 260 kts 43°
2026-04-22 13:47 47.78461 16.26585 7946 ft 263 kts 46°
2026-04-22 13:47 47.79688 16.28639 7694 ft 266 kts 44°
2026-04-22 13:47 47.80922 16.30626 7447 ft 263 kts 43°
2026-04-22 13:48 47.82167 16.32583 7199 ft 258 kts 43°
2026-04-22 13:48 47.83394 16.34504 6949 ft 254 kts 43°
2026-04-22 13:48 47.84623 16.36424 6697 ft 265 kts 43°
2026-04-22 13:48 47.85918 16.38438 6455 ft 269 kts 43°
2026-04-22 13:49 47.87192 16.40432 6220 ft 262 kts 43°
2026-04-22 13:49 47.88270 16.42601 6112 ft 266 kts 62°
2026-04-22 13:49 47.88771 16.45307 6086 ft 274 kts 74°
2026-04-22 13:49 47.89220 16.48033 6030 ft 269 kts 71°
2026-04-22 13:50 47.89377 16.50822 5988 ft 276 kts 95°
2026-04-22 13:50 47.88622 16.53470 5993 ft 284 kts 125°
2026-04-22 13:50 47.87088 16.55303 6000 ft 286 kts 153°
2026-04-22 13:50 47.85242 16.56436 5999 ft 288 kts 161°
2026-04-22 13:51 47.83349 16.57340 5987 ft 284 kts 163°
2026-04-22 13:51 47.81441 16.58147 5984 ft 286 kts 165°
2026-04-22 13:51 47.79513 16.58915 5981 ft 286 kts 165°
2026-04-22 13:51 47.77594 16.59666 5983 ft 286 kts 165°
2026-04-22 13:52 47.75668 16.60422 5976 ft 286 kts 165°
2026-04-22 13:52 47.73747 16.61177 5978 ft 285 kts 165°
2026-04-22 13:52 47.71824 16.61932 5981 ft 286 kts 165°
2026-04-22 13:52 47.69902 16.62710 5976 ft 286 kts 163°
2026-04-22 13:53 47.68186 16.64094 5970 ft 278 kts 135°
2026-04-22 13:53 47.67203 16.66402 5964 ft 257 kts 104°
2026-04-22 13:53 47.67025 16.68914 5979 ft 237 kts 82°
2026-04-22 13:53 47.67379 16.71244 5966 ft 233 kts 63°
2026-04-22 13:54 47.68309 16.73189 5982 ft 229 kts 39°
2026-04-22 13:54 47.69637 16.74408 5985 ft 223 kts 18°
2026-04-22 13:54 47.71153 16.74768 5983 ft 222 kts 357°
2026-04-22 13:54 47.72675 16.74398 5992 ft 221 kts 347°
2026-04-22 13:55 47.74167 16.73805 5984 ft 222 kts 344°
2026-04-22 13:55 47.75646 16.73125 5883 ft 225 kts 343°
2026-04-22 13:55 47.77171 16.72409 5495 ft 233 kts 343°
2026-04-22 13:55 47.78737 16.71695 5096 ft 237 kts 343°
2026-04-22 13:56 47.80329 16.70998 4698 ft 240 kts 344°
2026-04-22 13:56 47.81943 16.70315 4333 ft 241 kts 344°
2026-04-22 13:56 47.83536 16.69649 4182 ft 233 kts 345°
2026-04-22 13:56 47.85071 16.69019 4088 ft 225 kts 345°
2026-04-22 13:57 47.86586 16.68408 3751 ft 228 kts 345°
2026-04-22 13:57 47.88133 16.67786 3378 ft 232 kts 345°
2026-04-22 13:57 47.89657 16.67177 3205 ft 227 kts 345°
2026-04-22 13:57 47.91176 16.66564 3111 ft 219 kts 345°
2026-04-22 13:58 47.92623 16.65976 3044 ft 211 kts 344°
2026-04-22 13:58 47.94009 16.65414 3003 ft 202 kts 344°
2026-04-22 13:58 47.95324 16.64843 2988 ft 188 kts 343°
2026-04-22 13:58 47.96496 16.64355 2947 ft 167 kts 343°
2026-04-22 13:59 47.97545 16.63900 2926 ft 149 kts 344°
2026-04-22 13:59 47.98572 16.63458 2777 ft 157 kts 344°
2026-04-22 13:59 47.99623 16.63030 2562 ft 156 kts 345°
2026-04-22 13:59 48.00643 16.62597 2281 ft 153 kts 343°
2026-04-22 14:00 48.01671 16.62174 2041 ft 148 kts 343°
2026-04-22 14:00 48.02625 16.61755 1879 ft 141 kts 344°
2026-04-22 14:00 48.03546 16.61372 1695 ft 135 kts 344°
2026-04-22 14:00 48.04457 16.60991 1530 ft 138 kts 344°
2026-04-22 14:01 48.05390 16.60598 1351 ft 139 kts 344°
2026-04-22 14:01 48.06313 16.60210 1140 ft 136 kts 345°
2026-04-22 14:01 48.07214 16.59828 983 ft 135 kts 343°
2026-04-22 14:01 48.08126 16.59421 863 ft 138 kts 344°
2026-04-22 14:02 48.09060 16.59045 665 ft 138 kts 344°
2026-04-22 14:02 48.09914 16.58685 610 ft 101 kts 344°
2026-04-22 14:02 48.10337 16.58495 610 ft 30 kts 323°
2026-04-22 14:02 48.10439 16.58315 610 ft 21 kts 303°
2026-04-22 14:03 48.10495 16.58192 610 ft 14 kts 317°
2026-04-22 14:03 48.10587 16.58128 610 ft 16 kts 344°
2026-04-22 14:03 48.10698 16.58081 610 ft 17 kts 343°
2026-04-22 14:03 48.10819 16.58031 610 ft 19 kts 343°
2026-04-22 14:04 48.10943 16.57983 610 ft 16 kts 341°
2026-04-22 14:04 48.11057 16.57930 610 ft 18 kts 344°
2026-04-22 14:04 48.11182 16.57875 610 ft 20 kts 343°
2026-04-22 14:04 48.11318 16.57819 610 ft 21 kts 344°
2026-04-22 14:05 48.11463 16.57757 610 ft 22 kts 344°
2026-04-22 14:05 48.11605 16.57697 610 ft 18 kts 343°
2026-04-22 14:05 48.11823 16.57582 610 ft 17 kts 301°
2026-04-22 14:06 48.11817 16.57447 610 ft 14 kts 253°
2026-04-22 14:06 48.11829 16.57297 610 ft 14 kts 294°
2026-04-22 14:06 48.11855 16.57155 610 ft 13 kts 287°
2026-04-22 14:06 48.11894 16.57025 610 ft 15 kts 296°
2026-04-22 14:07 48.11939 16.56887 610 ft 13 kts 297°
2026-04-22 14:07 48.11945 16.56807 610 ft 4 kts 220°
2026-04-22 14:07 48.11925 16.56790 610 ft 1 kts 206°
2026-04-22 14:07 48.11913 16.56779 610 ft 3 kts 208°
2026-04-22 14:08 48.11901 16.56770 610 ft 0 kts 206°